Location: Helion Bumpstead
(52.0500°N, 0.4000°E)
Time: 19:41:00
(UTC+00:00)

SJ-11-01 - Pass Details

Date: 15 November 2025
Orbit: 675 x 689 km, 98.0° (Epoch: 14 December)

Event Time Altitude Azimuth Distance (km) Brightness Sun altitude
Rises 04:59:07 0° 14° (NNE) 3,069 7.8 -21.2°
Reaches altitude 10° 05:01:22 10° 15° (NNE) 2,150 6.9 -20.9°
Maximum altitude 05:06:06 87° 103° (ESE) 698 4.2 -20.1°
Drops below altitude 10° 05:10:47 10° 195° (SSW) 2,138 6.7 -19.4°
Sets 05:13:01 0° 196° (SSW) 3,050 7.5 -19.1°
